Radio RS-1

operational
NORAD ID: 11085 Int'l Des: 1978-100 Owner: MAIO/MOM Country: SU
LEOCIRCULARPOLAR

About Radio RS-1

Description loading...

Live Position

Loading 3D Globe...

Upcoming Passes

Altitude History

Altitude vs Time

uPlot chart will show altitude changes over time

Two-Line Element Set

1 11085U 78100B 26062.62949795 .00000010 00000-0 13904-4 0 9990
2 11085 82.5442 106.1536 0013197 183.8704 296.9552 11.96568195 68199
Epoch: Mar 3, 2026 • Age: 28 hours

Current Status

Altitude 1719.1 km
Velocity 7.02 km/s
Sub-Earth Point -71.50°S, 88.58°E
Launch Date Oct 26, 1978
Age 47.3 years
Type other

Technical Details

Classification Payload
Mass 40.00 kg
Dry Mass 40.00 kg
Total Mass 40.00 kg
Length 0.30 m
Diameter 0.40 m
Span 1.50 m
Shape Cyl + Ant
Manufacturer MEI/MAIO
Bus Type RS
Phase Status In Orbit
Owner/State MAIO/MOM/SU

Large Constellations

Loading constellations...